Location: Kuffner-Sternwarte
(48.2130°N, 16.2960°E)
Time: 03:40:37
(UTC+01:00)

Oscar 11 - Visible Passes

Search period start: 06 November 2024 00:00
Search period end: 16 November 2024 00:00
Orbit: 599 x 609 km, 97.7° (Epoch: 05 November)

Date Brightness Start Highest point End Pass type
(mag) Time Alt. Az. Time Alt. Az. Time Alt. Az.
06 Nov 9.3 04:21:58 10° N 04:22:43 14° N 04:22:43 14° N visible
07 Nov 9.3 04:34:34 10° N 04:35:07 13° N 04:35:07 13° N visible
08 Nov 9.4 04:47:12 10° N 04:47:30 11° NNW 04:47:30 11° NNW visible
